Location: Buch
(49.7331°N, 12.1098°E)
Time: 04:23:09
(UTC+00:00)

Spot 2 Rocket - Pass Details

Date: 12 May 2021
Orbit: 758 x 771 km, 98.5° (Epoch: 23 June)

Event Time Altitude Azimuth Distance (km) Brightness Sun altitude
Exits shadow 19:44:39 10° 139° (SE) 2,269 5.3 -8.5°
Maximum altitude 19:49:24 47° 68° (ENE) 1,008 4.0 -9.0°
Drops below altitude 10° 19:54:13 10° 355° (N) 2,301 6.7 -9.6°
Sets 19:56:35 0° 350° (N) 3,230 7.7 -9.9°
